Wind_Speed
37 37 37 37 38 38 36 33 30 29 29 30 29 28 26 25 24 24 22 20 20 19 19 18 18 17 17 16 16 15 14 14 13 13 13 12 12 12 12 12 12 12 13 13 13 13 14 14 15
37 38 39 39 39 38 35 32 31 31 31 31 30 29 28 27 26 25 24 22 21 20 20 19 19 18 18 17 17 16 16 15 15 15 14 14 14 14 14 14 14 14 15 15 15 16 16 16 17
38 39 40 41 40 37 35 33 33 33 32 32 31 30 30 28 27 26 25 24 23 22 21 21 20 19 19 18 18 18 17 17 17 17 16 16 16 16 16 16 16 17 17 17 17 18 18 18 19
38 40 41 41 39 37 36 34 34 34 33 33 32 31 30 29 28 27 27 25 24 23 23 22 21 21 20 20 19 19 19 19 18 18 18 18 18 18 18 18 18 19 19 19 19 19 20 20 20
39 40 41 41 39 38 36 35 35 35 34 34 33 32 31 30 29 29 28 27 26 25 24 23 23 22 22 21 21 20 20 20 20 20 20 20 20 20 20 20 20 20 20 21 21 21 21 21 21
40 41 41 40 38 38 37 37 36 35 35 35 34 33 32 31 30 30 30 29 28 27 26 25 24 24 23 23 22 22 22 21 21 21 21 21 21 21 21 21 21 22 22 22 22 22 22 23 23
40 41 41 39 39 38 38 37 37 36 36 35 35 34 33 33 32 31 31 30 29 28 27 27 26 25 25 24 24 23 23 22 22 22 22 22 22 22 22 22 23 23 23 23 23 23 23 24 24
40 41 41 40 39 38 38 38 38 37 37 36 36 35 34 33 33 32 32 31 31 30 29 28 27 27 26 26 25 24 24 24 23 23 23 23 23 23 23 23 24 24 24 24 24 24 24 25 25
40 41 41 40 40 39 39 39 39 39 38 37 37 36 35 34 34 33 33 33 32 31 30 29 29 28 28 27 27 26 26 25 25 24 24 24 24 24 24 24 24 24 24 24 24 25 26 26 27
41 41 40 40 40 40 39 40 40 39 39 38 37 37 36 35 35 34 34 33 33 32 32 31 30 30 29 29 28 27 27 26 26 26 25 25 25 26 26 25 25 25 26 26 26 26 27 28 28
42 41 40 41 40 40 41 41 41 41 40 39 38 37 37 36 36 35 35 34 34 33 33 32 31 31 30 30 29 29 28 27 27 27 27 27 27 27 27 26 26 26 27 27 27 28 29 29 30
42 41 41 41 41 41 41 41 41 41 40 39 39 39 38 37 37 36 35 35 35 34 34 33 32 32 31 31 30 30 29 28 28 28 28 28 28 28 27 27 27 28 28 28 29 30 31 31 32
41 41 42 42 42 42 42 42 42 41 41 41 40 39 39 38 37 37 37 36 35 35 34 34 33 32 32 31 31 30 29 29 29 29 29 29 29 29 29 29 29 29 29 30 31 31 32 32 32
40 41 42 42 42 42 43 43 43 42 41 41 41 40 40 39 38 37 37 36 36 36 35 34 34 33 33 32 32 31 30 30 30 30 30 30 31 30 30 30 30 30 31 31 31 31 32 32 32
39 41 42 43 43 43 44 44 43 42 42 41 41 41 41 40 39 39 38 37 37 36 35 35 34 33 33 33 32 32 31 31 31 31 31 31 31 31 31 31 31 31 31 31 32 32 32 32 33
40 42 42 42 43 43 45 44 43 43 43 42 41 41 41 40 40 39 38 38 37 36 36 35 34 34 34 33 33 33 32 32 32 32 32 32 32 32 32 32 32 32 32 32 33 33 33 33 34
40 41 41 42 42 43 45 44 44 43 43 43 42 41 41 40 40 39 38 38 38 37 37 36 36 35 35 34 34 33 33 33 32 32 32 32 32 32 32 33 33 33 33 33 33 33 34 34 35
38 39 40 41 41 42 43 44 44 44 43 43 42 41 41 41 40 39 39 38 38 38 37 37 36 36 36 35 35 34 33 33 32 32 32 32 32 33 33 33 33 32 33 33 34 34 34 35 35
36 38 39 41 40 41 42 43 44 44 44 44 43 42 41 41 41 40 39 38 38 38 37 37 37 36 36 35 35 35 34 34 33 33 33 32 32 33 33 33 33 32 33 33 33 34 34 35 35
34 36 38 39 40 41 42 42 43 43 44 43 43 43 42 41 41 40 39 39 38 38 38 37 37 36 36 35 35 35 35 34 34 34 33 33 33 33 32 31 32 33 33 33 34 34 35 35 35
31 34 35 37 38 40 41 42 42 42 43 43 43 42 42 42 41 40 39 39 39 38 38 37 37 36 36 35 35 35 35 35 34 34 34 34 34 34 33 33 32 32 33 34 34 34 34 34 34
29 31 33 34 36 38 40 41 41 41 41 41 41 41 42 42 41 40 40 39 39 39 38 37 37 37 36 36 35 35 34 34 34 34 34 34 33 33 33 33 34 33 33 34 33 33 32 32 33
29 29 30 31 33 36 37 39 40 39 39 39 39 39 40 41 41 41 41 41 40 39 38 38 37 37 37 36 35 35 35 34 34 33 33 33 33 33 34 34 34 34 34 33 32 32 32 32 32
27 28 29 30 32 34 35 36 37 38 37 37 37 37 38 40 40 41 41 41 41 40 39 39 38 37 37 36 35 35 35 34 34 34 33 32 33 33 33 33 34 34 34 33 32 32 33 33 33
27 27 27 29 30 32 32 33 34 35 36 36 37 37 38 38 39 40 40 40 40 40 40 39 39 38 37 36 36 35 35 34 33 33 33 32 33 33 33 33 34 34 34 33 33 33 32 33 33
26 27 28 29 30 30 31 32 32 33 34 35 35 36 37 37 37 38 39 40 40 40 40 39 38 38 37 37 36 36 35 34 33 33 33 32 33 33 33 33 34 34 33 33 33 33 32 32 32
25 25 27 27 28 29 30 30 31 31 32 34 34 35 36 36 37 37 37 38 38 38 39 39 38 38 37 37 36 36 35 35 34 34 33 33 33 33 34 33 33 34 34 33 33 32 33 33 33
24 24 25 26 26 27 28 28 29 29 29 30 32 34 35 35 36 37 37 37 37 37 38 38 38 37 37 37 36 36 35 35 35 34 34 33 33 33 33 33 33 33 33 33 33 33 33 33 33
22 24 24 24 25 26 27 27 27 27 27 28 29 31 33 34 35 36 36 37 37 37 37 38 38 37 37 37 36 36 35 35 35 34 34 33 33 32 32 32 32 33 33 33 33 33 33 33 33
22 23 23 24 25 25 26 27 26 26 26 26 28 29 30 32 34 35 36 36 37 37 38 38 38 38 38 37 37 36 36 35 35 35 34 34 33 32 32 32 32 33 33 33 34 34 34 33 33
Wind_Direction
232 231 231 231 232 233 233 232 231 230 231 232 232 233 233 233 233 235 235 234 235 233 232 232 232 232 233 235 237 239 241 245 247 249 251 254 258 261 263 267 271 275 278 282 285 287 288 289 289
231 231 231 231 232 233 233 231 231 230 231 232 232 232 233 233 233 234 235 234 235 235 234 233 234 234 235 237 238 241 243 246 249 251 254 256 259 262 264 268 271 274 278 280 282 283 285 287 287
231 230 231 231 232 232 232 231 231 231 231 231 232 232 232 233 233 233 234 234 234 235 235 235 235 235 235 237 239 241 245 248 250 252 255 258 261 264 267 270 272 275 277 279 281 282 284 286 287
232 231 231 231 231 230 231 230 230 231 230 230 231 231 232 232 233 233 233 234 234 235 235 235 235 235 237 238 241 243 246 249 251 253 256 259 262 264 267 269 272 274 276 278 280 282 283 285 286
232 231 231 230 229 229 230 230 230 230 230 230 230 230 231 231 231 232 232 233 233 234 234 234 235 236 238 241 243 245 248 250 253 255 257 259 261 264 266 269 271 274 276 278 279 281 282 283 284
232 232 231 230 229 228 229 230 230 230 230 229 229 229 230 230 230 230 231 232 233 234 235 235 236 237 240 242 245 247 249 251 254 256 257 259 262 264 267 269 272 274 275 277 278 279 280 282 283
233 232 232 230 228 228 228 229 229 229 230 229 229 229 228 229 230 230 231 232 233 234 235 236 237 239 241 243 245 247 250 252 254 256 257 260 262 265 267 269 271 272 274 276 277 278 280 281 282
233 233 232 230 228 228 228 228 228 228 228 229 228 228 227 228 229 230 231 232 233 234 235 236 238 239 241 243 245 247 250 252 253 256 258 260 263 265 267 269 271 272 274 276 277 278 280 281 282
233 233 232 230 229 228 228 229 228 228 229 229 229 229 228 228 229 230 231 232 233 234 235 236 238 240 242 244 246 248 250 251 253 256 258 261 263 265 267 269 271 273 274 276 277 279 280 281 282
233 233 232 230 229 229 228 229 228 228 229 229 229 229 229 228 229 231 232 232 232 233 235 236 238 240 242 244 247 249 251 252 254 256 259 261 263 266 268 269 271 273 274 276 277 279 280 281 282
234 233 232 231 229 228 228 229 228 227 228 229 229 230 230 230 230 230 231 231 233 234 235 237 239 241 243 244 246 248 250 252 255 257 260 262 263 265 267 269 271 273 274 276 278 279 281 282 283
233 232 231 230 229 228 228 228 228 228 227 228 229 230 230 230 229 229 231 232 233 235 236 237 239 241 243 244 246 248 250 253 255 258 259 261 263 265 266 269 271 273 275 277 279 280 281 283 283
233 231 231 230 228 227 227 228 228 228 227 227 228 229 230 229 229 230 231 233 234 236 236 237 240 241 243 244 246 249 251 253 255 258 260 262 263 264 267 269 271 274 276 278 280 281 282 282 283
232 231 230 229 228 227 227 228 228 227 228 228 228 228 228 229 229 230 231 233 234 236 237 238 240 241 243 245 247 249 252 254 256 258 260 262 263 265 267 270 272 274 277 279 280 281 281 282 283
230 230 229 228 228 227 228 228 228 227 228 228 228 228 228 229 230 230 231 232 234 236 237 239 240 241 243 246 248 250 252 254 256 257 259 261 263 264 267 270 272 274 277 278 280 281 281 283 285
228 229 228 228 228 227 228 228 228 228 228 228 229 228 229 229 230 231 231 232 233 236 238 239 241 242 244 247 249 251 253 255 256 258 260 261 263 265 266 269 271 274 276 278 280 280 282 283 285
228 229 228 228 228 228 229 229 228 229 229 228 228 229 229 230 230 230 231 232 233 236 238 240 241 243 245 247 249 251 254 255 257 258 260 262 263 265 267 268 270 273 276 278 280 281 282 283 284
231 230 229 229 229 228 229 229 229 229 229 229 229 229 229 230 230 230 231 232 234 236 238 240 242 244 246 248 250 252 254 255 257 258 260 263 264 266 267 269 271 274 276 278 280 281 282 283 285
233 232 231 229 229 229 229 229 229 229 229 228 229 229 229 230 230 231 232 233 234 236 237 239 242 244 247 249 251 252 254 255 257 259 261 263 266 267 268 270 271 274 276 279 281 282 283 284 285
233 233 232 231 229 230 229 229 229 229 229 229 229 229 229 230 231 232 233 234 235 236 238 239 241 244 246 248 250 252 253 255 257 259 261 262 265 267 270 272 273 275 277 279 281 282 283 284 285
232 232 231 231 230 230 230 230 229 228 228 229 230 230 230 231 232 232 233 234 235 236 237 239 242 244 245 247 249 251 253 255 257 258 261 263 265 267 269 271 274 277 278 281 282 282 283 284 285
232 231 230 230 230 229 229 231 229 229 229 229 229 230 231 231 232 233 233 234 235 237 238 240 242 244 245 246 248 250 252 254 256 258 260 262 263 266 269 271 274 277 280 282 282 282 282 284 287
232 231 230 230 231 230 229 230 228 229 230 230 230 231 232 232 233 233 234 235 236 237 238 240 242 243 244 245 247 249 251 254 256 258 260 261 262 265 268 271 274 277 279 281 281 280 282 284 287
230 231 231 231 231 231 228 230 229 228 229 230 230 231 232 233 233 234 234 235 237 238 239 240 242 243 244 245 247 250 252 254 256 258 260 261 263 266 268 271 274 277 278 280 281 281 282 285 287
229 229 229 229 229 231 228 229 229 228 228 230 232 233 233 233 234 234 235 235 237 238 239 240 242 243 243 245 247 249 250 252 255 257 259 261 263 266 269 272 274 275 277 278 279 280 283 285 286
228 227 228 229 230 232 230 230 230 230 230 230 232 233 233 233 233 234 235 236 237 238 239 239 241 242 243 244 246 247 248 250 254 257 260 262 264 267 270 272 274 274 275 277 279 280 282 284 286
225 225 226 230 232 233 231 233 233 232 232 231 231 232 233 234 234 234 235 235 237 238 238 239 239 240 242 244 245 246 248 250 253 256 259 262 265 267 270 272 273 273 275 276 278 280 281 283 286
227 227 228 230 232 232 232 232 233 232 233 233 232 232 233 234 235 236 235 235 236 236 237 238 239 240 241 243 245 246 248 250 253 256 259 261 265 267 269 271 272 272 273 275 278 281 282 283 287
226 227 229 231 233 234 235 233 232 233 233 233 233 233 234 235 235 235 236 236 236 236 236 237 238 239 241 243 245 246 248 251 253 255 258 261 263 266 268 269 271 272 273 274 277 280 282 283 286
230 231 232 234 236 236 237 235 232 233 233 234 234 234 236 236 236 236 236 237 237 237 238 237 237 239 241 242 244 246 248 251 253 255 257 260 262 264 266 268 270 272 273 275 277 280 282 283 284
Height
5810 5813 5816 5819 5822 5825 5829 5834 5838 5841 5843 5845 5847 5850 5853 5856 5858 5862 5862 5862 5863 5865 5866 5867 5869 5870 5871 5872 5873 5874 5875 5876 5876 5877 5877 5877 5877 5877 5877 5877 5876 5876 5876 5875 5875 5874 5873 5873 5872
5803 5806 5809 5812 5815 5820 5825 5829 5832 5835 5837 5840 5842 5845 5847 5850 5853 5855 5856 5858 5860 5861 5863 5864 5866 5867 5868 5870 5871 5872 5873 5873 5874 5874 5875 5875 5875 5875 5875 5874 5874 5874 5873 5873 5872 5871 5871 5870 5869
5796 5799 5802 5805 5809 5815 5820 5823 5826 5829 5831 5834 5837 5839 5842 5845 5848 5850 5852 5854 5856 5858 5860 5861 5863 5864 5865 5867 5868 5869 5870 5871 5871 5872 5872 5872 5872 5872 5872 5871 5871 5871 5870 5870 5869 5868 5868 5867 5866
5788 5791 5795 5799 5804 5810 5813 5817 5820 5822 5826 5828 5831 5834 5838 5841 5843 5846 5848 5850 5852 5854 5856 5858 5859 5861 5862 5863 5864 5866 5867 5867 5868 5868 5869 5869 5869 5869 5869 5868 5868 5867 5867 5866 5866 5865 5864 5863 5863
5780 5784 5787 5792 5798 5803 5806 5810 5813 5816 5819 5823 5826 5829 5832 5835 5838 5840 5843 5845 5848 5850 5852 5853 5855 5857 5858 5860 5861 5862 5863 5864 5864 5865 5865 5865 5865 5865 5865 5865 5864 5864 5863 5863 5862 5861 5861 5860 5859
5773 5777 5781 5786 5792 5796 5799 5803 5806 5810 5813 5816 5820 5823 5826 5829 5832 5835 5838 5840 5843 5845 5847 5849 5851 5853 5854 5856 5857 5858 5859 5860 5861 5861 5861 5862 5862 5862 5861 5861 5861 5860 5860 5859 5858 5857 5857 5856 5855
5766 5770 5774 5780 5785 5789 5793 5796 5799 5803 5806 5810 5813 5817 5820 5824 5827 5830 5832 5835 5838 5840 5842 5844 5846 5848 5850 5851 5853 5854 5855 5856 5856 5857 5857 5858 5858 5858 5857 5857 5857 5856 5855 5855 5854 5853 5852 5851 5850
5758 5762 5766 5772 5777 5782 5785 5788 5792 5796 5800 5803 5807 5811 5814 5818 5821 5824 5827 5830 5832 5835 5838 5840 5842 5843 5845 5847 5848 5849 5850 5851 5852 5853 5853 5853 5854 5853 5853 5853 5852 5852 5851 5850 5849 5849 5848 5847 5846
5749 5754 5758 5765 5769 5774 5777 5781 5785 5789 5793 5797 5800 5804 5808 5811 5815 5818 5821 5824 5827 5830 5832 5834 5837 5839 5840 5842 5843 5845 5846 5847 5847 5848 5848 5849 5849 5849 5848 5848 5848 5847 5846 5846 5845 5844 5843 5842 5840
5740 5745 5752 5757 5761 5766 5769 5773 5777 5782 5786 5790 5794 5797 5801 5805 5808 5812 5815 5818 5821 5824 5826 5829 5831 5833 5835 5837 5838 5840 5841 5842 5843 5843 5844 5844 5844 5844 5844 5843 5843 5842 5842 5841 5840 5839 5837 5836 5835
5732 5738 5744 5748 5753 5757 5761 5765 5769 5773 5778 5783 5787 5791 5794 5798 5802 5805 5809 5812 5815 5817 5820 5823 5825 5828 5830 5831 5833 5834 5836 5837 5838 5838 5838 5839 5839 5839 5838 5838 5838 5837 5836 5835 5834 5833 5832 5830 5829
5724 5729 5734 5739 5743 5748 5752 5756 5761 5765 5771 5775 5779 5783 5787 5791 5795 5799 5802 5805 5808 5811 5814 5817 5819 5822 5824 5826 5827 5829 5830 5831 5832 5833 5833 5833 5833 5833 5833 5833 5832 5832 5831 5830 5828 5827 5825 5824 5822
5715 5720 5725 5730 5734 5739 5743 5748 5752 5757 5763 5767 5771 5776 5780 5784 5788 5792 5795 5799 5802 5805 5808 5811 5813 5816 5818 5820 5822 5823 5824 5825 5826 5827 5827 5827 5828 5828 5828 5827 5827 5826 5825 5824 5822 5821 5819 5817 5815
5706 5710 5715 5720 5725 5730 5734 5739 5744 5750 5754 5759 5763 5768 5772 5777 5781 5785 5788 5792 5795 5799 5801 5804 5807 5810 5812 5814 5815 5817 5818 5819 5820 5821 5821 5821 5822 5822 5822 5821 5821 5820 5819 5817 5815 5814 5812 5810 5808
5697 5701 5706 5711 5716 5721 5726 5731 5736 5742 5746 5751 5755 5760 5765 5769 5773 5777 5781 5785 5788 5792 5795 5798 5801 5803 5805 5807 5809 5811 5812 5813 5814 5814 5815 5815 5815 5815 5815 5815 5814 5813 5812 5811 5809 5807 5806 5804 5802
5687 5692 5697 5702 5707 5712 5718 5723 5728 5732 5737 5743 5747 5752 5757 5761 5766 5770 5774 5778 5781 5785 5788 5791 5794 5797 5799 5801 5803 5804 5805 5806 5807 5808 5808 5809 5809 5809 5809 5808 5808 5807 5806 5804 5803 5801 5799 5797 5795
5678 5683 5689 5694 5698 5703 5709 5714 5719 5724 5729 5734 5740 5745 5749 5754 5758 5762 5766 5770 5774 5778 5781 5784 5787 5789 5792 5794 5796 5797 5799 5800 5800 5801 5801 5801 5802 5802 5802 5801 5801 5800 5799 5797 5796 5794 5792 5790 5788
5672 5676 5681 5686 5690 5695 5700 5706 5711 5716 5721 5726 5731 5736 5741 5746 5750 5754 5759 5763 5767 5770 5774 5777 5779 5782 5784 5787 5789 5790 5791 5792 5793 5794 5795 5795 5795 5795 5795 5794 5793 5793 5791 5790 5788 5786 5784 5782 5780
5664 5669 5673 5678 5682 5687 5692 5697 5702 5707 5712 5718 5723 5728 5733 5738 5742 5747 5751 5755 5759 5763 5766 5769 5772 5775 5777 5779 5781 5783 5784 5785 5786 5787 5788 5788 5788 5788 5787 5787 5786 5785 5784 5783 5781 5779 5777 5774 5772
5656 5660 5664 5669 5674 5678 5683 5688 5693 5698 5704 5709 5714 5720 5725 5730 5734 5739 5743 5747 5751 5755 5758 5762 5764 5767 5769 5772 5774 5775 5777 5778 5779 5780 5780 5781 5781 5780 5780 5779 5779 5778 5777 5775 5773 5771 5769 5766 5764
5648 5653 5657 5661 5666 5669 5674 5679 5685 5690 5695 5701 5706 5711 5717 5722 5726 5731 5735 5739 5743 5747 5750 5754 5757 5759 5762 5764 5766 5767 5769 5770 5771 5772 5773 5773 5773 5773 5773 5772 5771 5770 5769 5767 5765 5763 5761 5759 5756
5642 5646 5650 5654 5658 5661 5666 5671 5677 5682 5687 5692 5698 5703 5708 5713 5718 5722 5727 5731 5735 5739 5742 5745 5748 5751 5753 5756 5758 5760 5761 5763 5764 5765 5765 5766 5766 5765 5765 5764 5764 5763 5761 5759 5757 5755 5753 5751 5749
5637 5640 5643 5647 5650 5655 5659 5663 5670 5674 5679 5685 5690 5695 5700 5704 5709 5714 5718 5722 5726 5730 5734 5737 5740 5743 5745 5748 5750 5752 5754 5755 5756 5757 5757 5758 5758 5758 5757 5756 5756 5755 5753 5752 5750 5748 5746 5744 5742
5631 5634 5637 5640 5643 5648 5653 5657 5662 5667 5673 5678 5682 5687 5691 5696 5700 5704 5709 5713 5717 5721 5725 5728 5732 5734 5737 5739 5742 5744 5745 5747 5748 5749 5749 5750 5750 5750 5749 5748 5748 5747 5745 5744 5742 5740 5739 5737 5734
5625 5628 5632 5634 5637 5641 5646 5650 5656 5660 5665 5670 5674 5678 5683 5687 5691 5696 5700 5704 5708 5712 5716 5720 5723 5726 5729 5731 5733 5735 5737 5739 5740 5741 5742 5742 5742 5742 5741 5741 5740 5739 5737 5736 5734 5733 5731 5729 5727
5619 5624 5628 5630 5633 5637 5641 5644 5650 5654 5658 5662 5666 5670 5674 5679 5683 5687 5691 5695 5699 5703 5707 5710 5714 5717 5720 5722 5725 5727 5729 5730 5732 5733 5734 5734 5734 5733 5733 5732 5731 5730 5729 5728 5727 5725 5723 5721 5719
5614 5618 5622 5626 5628 5632 5635 5639 5643 5647 5651 5655 5659 5662 5666 5670 5674 5678 5682 5686 5690 5694 5698 5701 5705 5708 5711 5713 5716 5718 5720 5722 5723 5724 5725 5726 5726 5725 5725 5724 5723 5722 5721 5720 5719 5717 5715 5713 5711
5611 5614 5617 5620 5623 5626 5630 5633 5637 5641 5644 5647 5651 5654 5658 5662 5666 5670 5674 5677 5681 5685 5688 5692 5696 5699 5702 5705 5707 5710 5712 5713 5715 5716 5717 5717 5717 5717 5717 5716 5715 5714 5713 5712 5711 5709 5707 5705 5703
5606 5609 5612 5615 5618 5621 5625 5630 5631 5634 5637 5640 5644 5647 5651 5654 5658 5662 5665 5669 5672 5676 5679 5683 5686 5690 5693 5696 5698 5701 5703 5705 5706 5708 5708 5709 5709 5709 5708 5708 5707 5706 5705 5704 5703 5701 5699 5697 5695
5601 5605 5608 5611 5614 5616 5619 5625 5625 5628 5631 5634 5637 5640 5643 5646 5650 5653 5657 5660 5664 5667 5671 5674 5677 5681 5684 5687 5689 5692 5694 5696 5698 5699 5700 5700 5700 5700 5700 5699 5698 5698 5697 5696 5694 5693 5691 5689 5687